Погода в Романовке

Погода в Романовке : погода сейчас, прогноз погоды и архив. Всё, что Вы хотите узнать о погоде в Романовке!

Поиск расширенной информации на нашем сайте:

Другие новости

Новости СМИ2

Главная страница сайта

Новости сайта

02.10.2013

Напоминаем, что на нашем новом сайте вы можете получить высокодетализированные прогнозы погоды по пунктам России, СНГ и мира (включающие важные для авиации метеовеличины, такие как направление и скорость ветра, видимость, явления погоды, количество и форма облачности, нижняя и верхняя граница облачности), а также ознакомиться с разнообразными материалами по авиационной метеорологии и подборкой полезных ссылок на эту тему.

Сайт Метеоцентр.Азия посвящён разработке технологий оптимизации авиаметеорологического обслуживания, включая проектирование и перспективное создание нескольких автоматизированных авиаметеорологических систем:
- система выпуска высокодетальных прогностических карт явлений погоды для нижнего воздушного пространства по России и ближнему зарубежью;
- система верификации прогнозов TAF (выпускаемых синоптиками официальных АМСГ РФ и ближнего зарубежья) и AUTOTAF (выпускаемых сайтом Метеоцентр.Азия) - выявление ошибок, онлайн-сопоставление с фактической погодой METAR, автоматическое внесение коррективов в прогнозы при резком отклонении фактической погоды от прогноза, подсчёт оправдываемости прогнозов по элементам и в целом;
- система обработки, анализа и отображения авиаметеорологической информации для применения провайдерами метеорологической информации.

Рекомендуем: Пластыри для стоп китайские - выгодные цены!

Погода в Романовке - сегодня

Время (UTC), дата Ветер
(°,м/с) 
Видим.   Явления Облачность Т
(°С)
Тd
(°С)
f(%) Тe
(°С)
Pmin
(гПа)
dP
(гПа)
Po
(мм)
O2
(г/м3)
Тmin Tmax R s Состояние
почвы
21 27.03.17 250 (З) н/о    4/0 средняя, верхняя 
[Ac lent|Ci fib]
-7.3 -10.8 76 -7  1019.8  -0.2  680  283           
00 28.03.17 310 (СЗ) 20000 м    8/4 600 м кучево-дожд., средняя, верхняя 
[Cb cap|Ac lent|Ci fib]
-5.6 -10.5 68 -5  1020.3  1.1  681  281  -8.3      <0.5  мокрый или
старый снег
10-40% 
03 28.03.17 050 (СВ) 20000 м    4/4 600 м кучево-дожд. 
[Cb cap]
+1.9 -10.9 38 +1  1017.5  0.2  681  273           
06 28.03.17 050 (СВ) 20000 м    6/6 600 м кучево-дожд. 
[Cb cap]
+2.7 -10.5 37 +2  1017.7  0.5  682  273           
09 28.03.17 360 (С) 3{10}  20000 м    4/4 600 м кучево-дожд. 
[Cb cap]
+2.5 -14.7 27 +1  1018.6  0.7  682  273           
12 28.03.17 010 (С) н/о    1/1 1000 м 
[Sc diur, vesp]
-2.1 -13.5 41 -2  1023.1  2.3  684  279    +3.1       
15 28.03.17 080 (В) н/о    ясно 
-4.9 -16.4 40 -4  1026.4  1.8  685  282           
18 28.03.17 350 (С) н/о    ясно 
-8.2 -16.6 51 -8  1029.5  1.5  686  286           
21 28.03.17 тихо ()   н/о    ясно 
-14.3 -17.8 75 -14  1034  1.5  688  294           
00 29.03.17 тихо ()   20000 м    ясно 
-8.9 -15.6 58 -9  1033.6  1.9  689  288  -16.4         
03 29.03.17 020 (С) 20000 м    ясно 
-1.3 -15.3 34 -1  1030.8  0.5  689  280           
06 29.03.17 070 (В) 20000 м    ясно 
+2.2 -15.1 26 +2  1027.8  -1.3  688  276           
09 29.03.17 320 (СЗ) 20000 м    ясно 
+3.5 -18.9 18 +4  1026.9  -0.4  688  275           
12 29.03.17 230 (ЮЗ) н/о    ясно 
-2.4 -18.4 28 -2  1030.4  0.9  689  281    +3.8       
15 29.03.17 340 (С) н/о    ясно 
-7 -16.7 46 -7  1033.1  0.6  689  286           
18 29.03.17 тихо ()   н/о    ясно 
-11.3 -16.1 68 -11  1035.6  0.5  690  291           
21 29.03.17 350 (С) н/о    ясно 
-13.7 -18.3 68 -14  1036.5  -0.1  689  294           
00 30.03.17 тихо ()   20000 м    ясно 
-10.5 -16.3 62 -11  1035.7  0.6  690  290  -15.8         
03 30.03.17 220 (ЮЗ) 20000 м    ясно 
+1.1 -13.6 32 +2  1029.8  -0.6  689  278           
06 30.03.17 210 (ЮЗ) 20000 м    4/0 верхняя 
[Ci fib]
+5.8 -14.3 22 +5  1025.2  -2.4  688  272           
09 30.03.17 200 (Ю) 20000 м  дым  ясно 
+7.3 -14.8 19 +7  1023.1  -1.4  687  270           
12 30.03.17 250 (З) н/о    ясно 
+1.1 -15.4 28 +2  1025.7  0.1  687  277    +7.3       
15 30.03.17 210 (ЮЗ) н/о    ясно 
-4.2 -14.4 45 -4  1027.8  -0.2  686  282           
18 30.03.17 310 (СЗ) н/о    ясно 
-8 -11.6 75 -8  1028.9  -0.5  686  286           
21 30.03.17 тихо ()   н/о    ясно 
-11 -13.7 80 -11  1029.7  -0.5  686  289           
Время (UTC), дата Ветер
(°,м/с) 
Видим.   Явления Облачность Т
(°С)
Тd
(°С)
f(%) Тe
(°С)
Pmin
(гПа)
dP
(гПа)
Po
(мм)
O2
(г/м3)
Тmin Tmax R s Состояние
почвы

Для получения пояснительной информации подведите курсор к названию столбца.

ПОГОДА в Романовке - архив

Всё, что Вы хотите узнать о погоде в Романовке - удобно и подробно!

Выберите нужную дату (начиная с 1 января 2015* года) и нажмите кнопку "Найти".
Будут отображены архивные сводки погоды по пункту Романовка, начиная с указанной даты.


Отображать данные в формате CSV (для использования в таблицах Excel)


Внимание! Наш архив погоды предназначен исключительно для личного некоммерческого использования в познавательных целях. Если Вам необходимы официальные справки о состоянии погоды (для производственных, юридических, коммерческих и т.п. целей), обращайтесь в органы Росгидромета.

*Примечание: данная дата относится к архиву по метеостанциям СССР (Россия, СНГ, Балтия).
Архив по метеостанциям Зарубежной Европы и Азии (кроме Китая) хранится 10 дней, по другим регионам земного шара (Китай, Африка, Америка, Австралия, Океания) - 1 день.

Романовка - район местоположения метеостанции


Название, широта, долгота, высота метеостанции:
Романовка 53.2°ш. 112.8°д. 923 м над ур. моря [Российская Федерация]

Дополнительная информация

В oтличие oт бoльшинства пoгoдных сайтoв мы публикуем пoдрoбную метеoинфoрмацию в детальнoм прoфессиoнальнoм фoрмате.

Характеристики температуры и влажнoсти вoздуха измеряются на высoте 2 м в тени вдали oт зданий и деревьев.
Скoрoсть ветра измеряется на высoте 10 м (на урoвне рoста челoвека скoрoсть ветра ниже в 1.5-2 раза). Если метеoстанция нахoдится в гoрoде или в лесу, тo скoрoсть ветра занижена на 2-4 м/с пo сравнению с oткрытым местoм. Скoрoсть ветра над акватoриями крупных рек и oзёр, а также на вершинах хoлмoв на 2-5 м/с выше, чем в oбычных услoвиях.
Атмoсфернoе давление в разных тoчках местнoсти мoжет значительнo oтличаться oт давления на метеoстанции, в зависимoсти oт услoвий рельефа (при пoдъёме на 10 м давление пoнижается примернo на 1 мм рт.ст.).